Time,TemperatureF,DewpointF,PressureIn,WindDirection,WindDirectionDegrees,WindSpeedMPH,WindSpeedGustMPH,Humidity,HourlyPrecipIn,Conditions,Clouds,dailyrainin,SoftwareType,DateUTC
2013-03-16 00:00:00,38.2,25.9,29.71,NW,316,15.0,15.0,61,0.00,CLR,,0.00,WeatherDisplay:10.37,2013-03-16 04:00:00,
2013-03-16 00:05:00,38.1,25.8,29.71,WNW,296,13.0,13.0,61,0.00,CLR,,0.00,WeatherDisplay:10.37,2013-03-16 04:05:00,
2013-03-16 00:10:00,38.1,25.8,29.71,WNW,291,12.7,12.7,61,0.00,CLR,,0.00,WeatherDisplay:10.37,2013-03-16 04:10:00,
2013-03-16 00:15:00,38.0,25.7,29.71,WNW,298,10.4,10.4,61,0.00,CLR,,0.00,WeatherDisplay:10.37,2013-03-16 04:15:00,
2013-03-16 00:20:00,38.0,25.7,29.71,WNW,301,13.8,13.8,61,0.00,CLR,,0.00,WeatherDisplay:10.37,2013-03-16 04:20:00,
2013-03-16 00:25:00,37.9,25.6,29.71,NW,310,17.3,17.3,61,0.00,CLR,,0.00,WeatherDisplay:10.37,2013-03-16 04:25:00,
2013-03-16 00:30:00,37.9,25.6,29.72,NW,311,15.0,15.0,61,0.00,CLR,,0.00,WeatherDisplay:10.37,2013-03-16 04:30:00,
2013-03-16 00:35:00,37.8,25.5,29.72,NW,313,13.0,13.0,61,0.00,CLR,,0.00,WeatherDisplay:10.37,2013-03-16 04:35:00,
2013-03-16 00:40:00,37.8,25.5,29.71,WNW,289,13.8,13.8,61,0.00,CLR,,0.00,WeatherDisplay:10.37,2013-03-16 04:40:00,
2013-03-16 00:45:00,37.8,25.5,29.72,West,281,11.5,11.5,61,0.00,CLR,,0.00,WeatherDisplay:10.37,2013-03-16 04:45:00,
2013-03-16 00:50:00,37.7,25.8,29.72,NW,326,7.0,7.0,62,0.00,CLR,,0.00,WeatherDisplay:10.37,2013-03-16 04:50:00,
2013-03-16 00:55:00,37.6,25.7,29.72,WNW,298,7.0,7.0,62,0.00,CLR,,0.00,WeatherDisplay:10.37,2013-03-16 04:55:00,
2013-03-16 01:00:00,37.5,25.7,29.72,NW,315,9.2,9.2,62,0.00,CLR,,0.00,WeatherDisplay:10.37,2013-03-16 05:00:00,
2013-03-16 01:05:00,37.3,25.5,29.72,NNW,335,8.1,8.1,62,0.00,CLR,,0.00,WeatherDisplay:10.37,2013-03-16 05:05:00,
2013-03-16 01:10:00,37.3,25.5,29.72,WNW,294,6.9,6.9,62,0.00,CLR,,0.00,WeatherDisplay:10.37,2013-03-16 05:10:00,
2013-03-16 01:15:00,37.1,25.3,29.72,NW,313,6.9,6.9,62,0.00,CLR,,0.00,WeatherDisplay:10.37,2013-03-16 05:15:00,
2013-03-16 01:20:00,37.0,25.2,29.72,WNW,287,4.0,4.0,62,0.00,CLR,,0.00,WeatherDisplay:10.37,2013-03-16 05:20:00,
2013-03-16 01:25:00,37.0,25.6,29.72,WNW,303,4.6,4.6,63,0.00,CLR,,0.00,WeatherDisplay:10.37,2013-03-16 05:25:00,
2013-03-16 01:30:00,36.9,25.5,29.73,WNW,286,6.9,6.9,63,0.00,CLR,,0.00,WeatherDisplay:10.37,2013-03-16 05:30:00,
2013-03-16 01:35:00,37.1,25.3,29.73,WNW,302,6.9,6.9,62,0.00,CLR,,0.00,WeatherDisplay:10.37,2013-03-16 05:35:00,
2013-03-16 01:40:00,37.2,25.4,29.73,NW,311,4.6,4.6,62,0.00,CLR,,0.00,WeatherDisplay:10.37,2013-03-16 05:40:00,
2013-03-16 01:45:00,37.2,25.4,29.73,WNW,290,4.0,4.0,62,0.00,CLR,,0.00,WeatherDisplay:10.37,2013-03-16 05:45:00,
2013-03-16 01:51:00,37.2,25.4,29.73,NNE,13,3.5,3.5,62,0.00,CLR,,0.00,WeatherDisplay:10.37,2013-03-16 05:51:00,
2013-03-16 01:56:00,37.2,25.4,29.73,North,0,0.0,0.0,62,0.00,CLR,,0.00,WeatherDisplay:10.37,2013-03-16 05:56:00,
2013-03-16 02:01:00,37.2,25.4,29.73,North,0,0.0,0.0,62,0.00,CLR,,0.00,WeatherDisplay:10.37,2013-03-16 06:01:00,
2013-03-16 02:06:00,37.4,25.9,29.73,NNW,331,4.0,4.0,63,0.00,CLR,,0.00,WeatherDisplay:10.37,2013-03-16 06:06:00,
2013-03-16 02:12:00,37.2,25.8,29.73,NNE,28,8.1,8.1,63,0.00,CLR,,0.00,WeatherDisplay:10.37,2013-03-16 06:12:00,
2013-03-16 02:17:00,37.0,25.9,29.74,NNE,29,8.1,8.1,64,0.00,CLR,,0.00,WeatherDisplay:10.37,2013-03-16 06:17:00,
2013-03-16 02:22:00,36.9,26.2,29.74,North,360,6.9,6.9,65,0.00,CLR,,0.00,WeatherDisplay:10.37,2013-03-16 06:22:00,
2013-03-16 02:28:00,36.9,26.6,29.74,North,355,9.2,9.2,66,0.00,CLR,,0.00,WeatherDisplay:10.37,2013-03-16 06:28:00,
2013-03-16 02:33:00,36.8,26.9,29.74,NNE,22,11.5,11.5,67,0.00,CLR,,0.00,WeatherDisplay:10.37,2013-03-16 06:33:00,
2013-03-16 02:38:00,36.9,27.0,29.74,NNW,332,11.5,11.5,67,0.00,CLR,,0.00,WeatherDisplay:10.37,2013-03-16 06:38:00,
2013-03-16 02:43:00,37.0,27.1,29.74,NNW,344,10.4,10.4,67,0.00,CLR,,0.00,WeatherDisplay:10.37,2013-03-16 06:43:00,
2013-03-16 02:48:00,37.1,27.2,29.74,NW,315,11.5,11.5,67,0.00,CLR,,0.00,WeatherDisplay:10.37,2013-03-16 06:48:00,
2013-03-16 02:53:00,37.1,26.8,29.74,NW,323,15.0,15.0,66,0.00,CLR,,0.00,WeatherDisplay:10.37,2013-03-16 06:53:00,
2013-03-16 02:58:00,37.1,26.8,29.74,NW,323,9.2,9.2,66,0.00,CLR,,0.00,WeatherDisplay:10.37,2013-03-16 06:58:00,
2013-03-16 03:03:00,37.0,26.7,29.74,NNW,333,8.1,8.1,66,0.00,OVC,,0.00,WeatherDisplay:10.37,2013-03-16 07:03:00,
2013-03-16 03:08:00,37.0,26.7,29.75,WNW,300,5.8,5.8,66,0.00,OVC,,0.00,WeatherDisplay:10.37,2013-03-16 07:08:00,
2013-03-16 03:13:00,37.0,26.3,29.75,NNW,333,5.0,5.0,65,0.00,OVC,,0.00,WeatherDisplay:10.37,2013-03-16 07:13:00,
2013-03-16 03:18:00,36.8,26.5,29.75,NW,323,6.0,6.0,66,0.00,OVC,,0.00,WeatherDisplay:10.37,2013-03-16 07:18:00,
2013-03-16 03:23:00,36.7,26.4,29.75,NNW,335,6.9,6.9,66,0.00,OVC,,0.00,WeatherDisplay:10.37,2013-03-16 07:23:00,
2013-03-16 03:28:00,36.5,26.2,29.75,NW,325,7.0,7.0,66,0.00,OVC,,0.00,WeatherDisplay:10.37,2013-03-16 07:28:00,
2013-03-16 03:33:00,36.3,26.4,29.75,NNW,333,7.0,7.0,67,0.00,OVC,,0.00,WeatherDisplay:10.37,2013-03-16 07:33:00,
2013-03-16 03:38:00,36.1,25.8,29.75,North,355,9.2,9.2,66,0.00,OVC,,0.00,WeatherDisplay:10.37,2013-03-16 07:38:00,
2013-03-16 03:43:00,35.9,26.0,29.75,North,5,5.8,5.8,67,0.00,OVC,,0.00,WeatherDisplay:10.37,2013-03-16 07:43:00,
2013-03-16 03:48:00,35.9,25.3,29.75,NNW,331,11.5,11.5,65,0.00,OVC,,0.00,WeatherDisplay:10.37,2013-03-16 07:48:00,
2013-03-16 03:53:00,35.9,24.1,29.76,NNW,346,9.2,9.2,62,0.00,OVC,,0.00,WeatherDisplay:10.37,2013-03-16 07:53:00,
2013-03-16 03:58:00,35.9,24.1,29.76,NNW,344,4.0,4.0,62,0.00,OVC,,0.00,WeatherDisplay:10.37,2013-03-16 07:58:00,
2013-03-16 04:03:00,35.9,24.1,29.76,NNW,344,4.0,4.0,62,0.00,BKN,,0.00,WeatherDisplay:10.37,2013-03-16 08:03:00,
2013-03-16 04:08:00,35.9,24.1,29.76,North,0,0.0,0.0,62,0.00,BKN,,0.00,WeatherDisplay:10.37,2013-03-16 08:08:00,
2013-03-16 04:13:00,35.9,24.1,29.77,North,0,0.0,0.0,62,0.00,BKN,,0.00,WeatherDisplay:10.37,2013-03-16 08:13:00,
2013-03-16 04:18:00,35.9,24.1,29.77,North,0,0.0,0.0,62,0.00,BKN,,0.00,WeatherDisplay:10.37,2013-03-16 08:18:00,
2013-03-16 04:23:00,35.9,24.1,29.77,North,0,0.0,0.0,62,0.00,BKN,,0.00,WeatherDisplay:10.37,2013-03-16 08:23:00,
2013-03-16 04:28:00,35.9,24.1,29.77,North,0,0.0,0.0,62,0.00,BKN,,0.00,WeatherDisplay:10.37,2013-03-16 08:28:00,
2013-03-16 04:33:00,35.9,24.1,29.77,North,0,0.0,0.0,62,0.00,BKN,,0.00,WeatherDisplay:10.37,2013-03-16 08:33:00,
2013-03-16 04:38:00,35.9,24.1,29.77,North,0,0.0,0.0,62,0.00,BKN,,0.00,WeatherDisplay:10.37,2013-03-16 08:38:00,
2013-03-16 04:43:00,35.9,24.1,29.77,North,0,0.0,0.0,62,0.00,BKN,,0.00,WeatherDisplay:10.37,2013-03-16 08:43:00,
2013-03-16 04:48:00,35.9,24.1,29.78,North,0,0.0,0.0,62,0.00,BKN,,0.00,WeatherDisplay:10.37,2013-03-16 08:48:00,
2013-03-16 04:53:00,35.9,24.1,29.78,North,0,0.0,0.0,62,0.00,BKN,,0.00,WeatherDisplay:10.37,2013-03-16 08:53:00,
2013-03-16 04:58:00,35.9,24.1,29.79,North,0,0.0,0.0,62,0.00,BKN,,0.00,WeatherDisplay:10.37,2013-03-16 08:58:00,
2013-03-16 05:03:00,35.9,24.1,29.79,North,0,0.0,0.0,62,0.00,FEW,,0.00,WeatherDisplay:10.37,2013-03-16 09:03:00,
2013-03-16 05:08:00,35.9,24.1,29.79,North,0,0.0,0.0,62,0.00,FEW,,0.00,WeatherDisplay:10.37,2013-03-16 09:08:00,
2013-03-16 05:13:00,35.9,24.1,29.79,North,0,0.0,0.0,62,0.00,FEW,,0.00,WeatherDisplay:10.37,2013-03-16 09:13:00,
2013-03-16 05:18:00,35.9,24.1,29.78,North,0,0.0,0.0,62,0.00,FEW,,0.00,WeatherDisplay:10.37,2013-03-16 09:18:00,
2013-03-16 05:23:00,35.9,24.1,29.78,North,0,0.0,0.0,62,0.00,FEW,,0.00,WeatherDisplay:10.37,2013-03-16 09:23:00,
2013-03-16 05:28:00,35.9,24.1,29.79,North,0,0.0,0.0,62,0.00,FEW,,0.00,WeatherDisplay:10.37,2013-03-16 09:28:00,
2013-03-16 05:33:00,35.9,24.1,29.80,North,0,0.0,0.0,62,0.00,FEW,,0.00,WeatherDisplay:10.37,2013-03-16 09:33:00,
2013-03-16 05:38:00,35.9,24.1,29.80,North,0,0.0,0.0,62,0.00,FEW,,0.00,WeatherDisplay:10.37,2013-03-16 09:38:00,
2013-03-16 05:43:00,35.9,24.1,29.80,North,0,0.0,0.0,62,0.00,FEW,,0.00,WeatherDisplay:10.37,2013-03-16 09:43:00,
2013-03-16 05:48:00,35.9,24.1,29.80,North,0,0.0,0.0,62,0.00,FEW,,0.00,WeatherDisplay:10.37,2013-03-16 09:48:00,
2013-03-16 05:53:00,35.9,24.1,29.80,North,0,0.0,0.0,62,0.00,FEW,,0.00,WeatherDisplay:10.37,2013-03-16 09:53:00,
2013-03-16 05:58:00,35.9,24.1,29.80,North,0,0.0,0.0,62,0.00,FEW,,0.00,WeatherDisplay:10.37,2013-03-16 09:58:00,
2013-03-16 06:03:00,32.6,20.6,29.80,NNW,345,3.5,3.5,61,0.00,FEW,,0.00,WeatherDisplay:10.37,2013-03-16 10:03:00,
2013-03-16 06:08:00,32.6,20.6,29.80,NNW,346,2.3,2.3,61,0.00,FEW,,0.00,WeatherDisplay:10.37,2013-03-16 10:08:00,
2013-03-16 06:13:00,32.5,21.3,29.81,NNW,348,1.1,0.0,63,0.00,FEW,,0.00,WeatherDisplay:10.37,2013-03-16 10:13:00,
2013-03-16 06:18:00,32.4,21.2,29.81,North,351,4.6,4.6,63,0.00,FEW,,0.00,WeatherDisplay:10.37,2013-03-16 10:18:00,
2013-03-16 06:23:00,32.3,21.1,29.81,North,355,3.5,3.5,63,0.00,FEW,,0.00,WeatherDisplay:10.37,2013-03-16 10:23:00,
2013-03-16 06:28:00,32.2,21.4,29.81,North,355,5.0,5.0,64,0.00,FEW,,0.00,WeatherDisplay:10.37,2013-03-16 10:28:00,
2013-03-16 06:33:00,32.2,21.0,29.81,North,360,5.8,5.8,63,0.00,FEW,,0.00,WeatherDisplay:10.37,2013-03-16 10:33:00,
2013-03-16 06:38:00,32.0,21.2,29.81,NNW,344,5.0,5.0,64,0.00,FEW,,0.00,WeatherDisplay:10.37,2013-03-16 10:38:00,
2013-03-16 06:43:00,31.9,21.5,29.82,NNW,344,0.0,0.0,65,0.00,FEW,,0.00,WeatherDisplay:10.37,2013-03-16 10:43:00,
2013-03-16 06:48:00,31.9,22.2,29.82,NNW,344,0.0,0.0,67,0.00,FEW,,0.00,WeatherDisplay:10.37,2013-03-16 10:48:00,
2013-03-16 06:53:00,32.1,21.3,29.82,NNW,344,0.0,0.0,64,0.00,FEW,,0.00,WeatherDisplay:10.37,2013-03-16 10:53:00,
2013-03-16 06:58:00,31.5,21.4,29.82,NNW,345,0.0,0.0,66,0.00,FEW,,0.00,WeatherDisplay:10.37,2013-03-16 10:58:00,
2013-03-16 07:03:00,31.3,21.6,29.82,NNW,345,0.0,0.0,67,0.00,BKN,,0.00,WeatherDisplay:10.37,2013-03-16 11:03:00,
2013-03-16 07:08:00,31.1,21.8,29.82,NNW,345,0.0,0.0,68,0.00,BKN,,0.00,WeatherDisplay:10.37,2013-03-16 11:08:00,
2013-03-16 07:13:00,30.9,21.9,29.82,NNW,345,0.0,0.0,69,0.00,BKN,,0.00,WeatherDisplay:10.37,2013-03-16 11:13:00,
2013-03-16 07:18:00,30.8,22.2,29.82,NNW,345,0.0,0.0,70,0.00,BKN,,0.00,WeatherDisplay:10.37,2013-03-16 11:18:00,
2013-03-16 07:23:00,30.8,21.5,29.82,NNW,346,0.0,0.0,68,0.00,BKN,,0.00,WeatherDisplay:10.37,2013-03-16 11:23:00,
2013-03-16 07:28:00,30.8,22.5,29.83,NNW,346,0.0,0.0,71,0.00,BKN,,0.00,WeatherDisplay:10.37,2013-03-16 11:28:00,
2013-03-16 07:33:00,30.9,21.9,29.83,North,360,0.0,0.0,69,0.00,BKN,,0.00,WeatherDisplay:10.37,2013-03-16 11:33:00,
2013-03-16 07:38:00,31.1,21.8,29.83,North,5,3.5,3.5,68,0.00,BKN,,0.00,WeatherDisplay:10.37,2013-03-16 11:38:00,
2013-03-16 07:43:00,31.3,21.6,29.83,NNE,20,3.0,3.0,67,0.00,BKN,,0.00,WeatherDisplay:10.37,2013-03-16 11:43:00,
2013-03-16 07:48:00,31.4,21.7,29.83,NNE,33,4.6,4.6,67,0.00,BKN,,0.00,WeatherDisplay:10.37,2013-03-16 11:48:00,
2013-03-16 07:54:00,31.5,21.4,29.83,NNE,32,4.0,4.0,66,0.00,BKN,,0.00,WeatherDisplay:10.37,2013-03-16 11:54:00,
2013-03-16 07:59:00,31.7,22.0,29.83,NNE,32,2.3,0.0,67,0.00,BKN,,0.00,WeatherDisplay:10.37,2013-03-16 11:59:00,
2013-03-16 08:04:00,31.7,21.6,29.83,North,5,3.5,3.5,66,0.00,BKN,,0.00,WeatherDisplay:10.37,2013-03-16 12:04:00,
2013-03-16 08:09:00,32.0,21.6,29.83,NNE,18,5.0,5.0,65,0.00,BKN,,0.00,WeatherDisplay:10.37,2013-03-16 12:09:00,
2013-03-16 08:14:00,32.1,21.7,29.83,NE,44,6.0,6.0,65,0.00,BKN,,0.00,WeatherDisplay:10.37,2013-03-16 12:14:00,
2013-03-16 08:19:00,32.2,21.4,29.83,NE,37,6.9,6.9,64,0.00,BKN,,0.00,WeatherDisplay:10.37,2013-03-16 12:19:00,
2013-03-16 08:24:00,32.3,21.5,29.83,NNE,32,10.0,10.0,64,0.00,BKN,,0.00,WeatherDisplay:10.37,2013-03-16 12:24:00,
2013-03-16 08:29:00,32.4,20.8,29.83,North,355,11.5,11.5,62,0.00,BKN,,0.00,WeatherDisplay:10.37,2013-03-16 12:29:00,
2013-03-16 08:34:00,32.5,21.3,29.83,NNE,14,6.0,6.0,63,0.00,BKN,,0.00,WeatherDisplay:10.37,2013-03-16 12:34:00,
2013-03-16 08:39:00,32.5,20.1,29.83,North,9,10.4,10.4,60,0.00,BKN,,0.00,WeatherDisplay:10.37,2013-03-16 12:39:00,
2013-03-16 08:44:00,32.6,19.8,29.83,North,350,11.5,11.5,59,0.00,BKN,,0.00,WeatherDisplay:10.37,2013-03-16 12:44:00,
2013-03-16 08:49:00,32.8,19.2,29.83,NNE,24,12.7,12.7,57,0.00,BKN,,0.00,WeatherDisplay:10.37,2013-03-16 12:49:00,
2013-03-16 08:54:00,33.1,19.5,29.83,NNW,338,11.5,11.5,57,0.00,BKN,,0.00,WeatherDisplay:10.37,2013-03-16 12:54:00,
2013-03-16 08:59:00,33.4,18.5,29.83,North,360,12.7,12.7,54,0.00,BKN,,0.00,WeatherDisplay:10.37,2013-03-16 12:59:00,
2013-03-16 09:04:00,33.5,18.2,29.83,NNE,24,12.0,12.0,53,0.00,OVC,,0.00,WeatherDisplay:10.37,2013-03-16 13:04:00,
2013-03-16 09:09:00,33.7,18.4,29.83,NNE,15,11.5,11.5,53,0.00,OVC,,0.00,WeatherDisplay:10.37,2013-03-16 13:09:00,
2013-03-16 09:14:00,33.8,18.0,29.84,North,350,10.4,10.4,52,0.00,OVC,,0.00,WeatherDisplay:10.37,2013-03-16 13:14:00,
2013-03-16 09:19:00,34.0,18.2,29.84,NNW,331,10.4,10.4,52,0.00,OVC,,0.00,WeatherDisplay:10.37,2013-03-16 13:19:00,
2013-03-16 09:24:00,33.9,17.2,29.84,NNE,15,14.0,14.0,50,0.00,OVC,,0.00,WeatherDisplay:10.37,2013-03-16 13:24:00,
2013-03-16 09:29:00,33.9,17.7,29.84,North,360,11.5,11.5,51,0.00,OVC,,0.00,WeatherDisplay:10.37,2013-03-16 13:29:00,
2013-03-16 09:34:00,34.1,17.8,29.84,NNE,13,11.5,11.5,51,0.00,OVC,,0.00,WeatherDisplay:10.37,2013-03-16 13:34:00,
2013-03-16 09:39:00,34.3,17.6,29.84,NNE,31,9.2,9.2,50,0.00,OVC,,0.00,WeatherDisplay:10.37,2013-03-16 13:39:00,
2013-03-16 09:44:00,34.3,16.6,29.84,NNE,30,13.8,13.8,48,0.00,OVC,,0.00,WeatherDisplay:10.37,2013-03-16 13:44:00,
2013-03-16 09:49:00,34.3,16.1,29.83,North,11,15.0,15.0,47,0.00,OVC,,0.00,WeatherDisplay:10.37,2013-03-16 13:49:00,
2013-03-16 09:54:00,34.3,16.1,29.83,NNW,334,16.1,16.1,47,0.00,OVC,,0.00,WeatherDisplay:10.37,2013-03-16 13:54:00,
2013-03-16 09:59:00,34.4,15.7,29.83,NNE,24,13.8,13.8,46,0.00,OVC,,0.00,WeatherDisplay:10.37,2013-03-16 13:59:00,
2013-03-16 10:04:00,34.5,14.3,29.83,NNW,344,13.8,13.8,43,0.00,OVC,,0.00,WeatherDisplay:10.37,2013-03-16 14:04:00,
2013-03-16 10:09:00,34.6,14.4,29.82,NW,321,12.7,12.7,43,0.00,OVC,,0.00,WeatherDisplay:10.37,2013-03-16 14:09:00,
2013-03-16 10:14:00,35.1,14.3,29.82,NNE,22,15.0,15.0,42,0.00,OVC,,0.00,WeatherDisplay:10.37,2013-03-16 14:14:00,
2013-03-16 10:19:00,35.4,14.0,29.83,North,349,12.7,12.7,41,0.00,OVC,,0.00,WeatherDisplay:10.37,2013-03-16 14:19:00,
2013-03-16 10:24:00,35.6,14.2,29.83,NNE,15,11.5,11.5,41,0.00,OVC,,0.00,WeatherDisplay:10.37,2013-03-16 14:24:00,
2013-03-16 10:29:00,35.6,13.0,29.82,North,5,19.6,19.6,39,0.00,OVC,,0.00,WeatherDisplay:10.37,2013-03-16 14:29:00,
2013-03-16 10:34:00,35.4,12.9,29.82,North,9,11.5,11.5,39,0.00,OVC,,0.00,WeatherDisplay:10.37,2013-03-16 14:34:00,
2013-03-16 10:39:00,35.1,12.6,29.82,North,349,12.7,12.7,39,0.00,OVC,,0.00,WeatherDisplay:10.37,2013-03-16 14:39:00,
2013-03-16 10:44:00,35.2,12.7,29.82,NNE,30,13.8,13.8,39,0.00,OVC,,0.00,WeatherDisplay:10.37,2013-03-16 14:44:00,
2013-03-16 10:49:00,35.3,12.8,29.83,NNE,13,9.2,9.2,39,0.00,OVC,,0.00,WeatherDisplay:10.37,2013-03-16 14:49:00,
2013-03-16 10:54:00,35.8,13.8,29.82,NNE,14,11.0,11.0,40,0.00,OVC,,0.00,WeatherDisplay:10.37,2013-03-16 14:54:00,
2013-03-16 10:59:00,35.5,13.0,29.81,NNE,27,12.7,12.7,39,0.00,OVC,,0.00,WeatherDisplay:10.37,2013-03-16 14:59:00,
2013-03-16 11:04:00,35.3,12.8,29.81,NNE,19,14.0,14.0,39,0.00,OVC,,0.00,WeatherDisplay:10.37,2013-03-16 15:04:00,
2013-03-16 11:09:00,35.3,13.9,29.81,NNE,25,6.9,6.9,41,0.00,OVC,,0.00,WeatherDisplay:10.37,2013-03-16 15:09:00,
2013-03-16 11:15:00,35.3,13.3,29.82,North,9,10.4,10.4,40,0.00,OVC,,0.00,WeatherDisplay:10.37,2013-03-16 15:15:00,
2013-03-16 11:20:00,35.3,13.3,29.81,North,5,8.1,8.1,40,0.00,OVC,,0.00,WeatherDisplay:10.37,2013-03-16 15:20:00,
2013-03-16 11:25:00,35.8,14.4,29.81,North,355,13.0,13.0,41,0.00,OVC,,0.00,WeatherDisplay:10.37,2013-03-16 15:25:00,
2013-03-16 11:30:00,35.7,14.3,29.80,North,360,13.8,13.8,41,0.00,OVC,,0.00,WeatherDisplay:10.37,2013-03-16 15:30:00,
2013-03-16 11:35:00,35.6,13.6,29.81,North,5,10.4,10.4,40,0.00,OVC,,0.00,WeatherDisplay:10.37,2013-03-16 15:35:00,
2013-03-16 11:40:00,35.7,13.7,29.81,NNE,13,9.0,9.0,40,0.00,OVC,,0.00,WeatherDisplay:10.37,2013-03-16 15:40:00,
2013-03-16 11:45:00,35.7,14.3,29.80,NNE,26,3.5,3.5,41,0.00,OVC,,0.00,WeatherDisplay:10.37,2013-03-16 15:45:00,
2013-03-16 11:50:00,36.0,14.0,29.80,North,5,6.9,7.5,40,0.00,OVC,,0.00,WeatherDisplay:10.37,2013-03-16 15:50:00,
2013-03-16 11:55:00,36.0,14.0,29.80,NNE,26,6.9,6.9,40,0.00,OVC,,0.00,WeatherDisplay:10.37,2013-03-16 15:55:00,
2013-03-16 12:00:00,36.1,13.5,29.80,NNW,332,10.4,10.4,39,0.00,OVC,,0.00,WeatherDisplay:10.37,2013-03-16 16:00:00,
2013-03-16 12:05:00,36.2,13.6,29.81,NE,48,9.2,9.2,39,0.00,OVC,,0.00,WeatherDisplay:10.37,2013-03-16 16:05:00,
2013-03-16 12:10:00,36.2,13.6,29.80,NE,48,4.0,4.0,39,0.00,OVC,,0.00,WeatherDisplay:10.37,2013-03-16 16:10:00,
2013-03-16 12:15:00,37.8,13.8,29.80,NNE,26,8.1,8.1,37,0.00,OVC,,0.00,WeatherDisplay:10.37,2013-03-16 16:15:00,
2013-03-16 12:20:00,37.9,13.3,29.80,NW,315,11.5,11.5,36,0.00,OVC,,0.00,WeatherDisplay:10.37,2013-03-16 16:20:00,
2013-03-16 12:25:00,40.2,15.3,29.80,WNW,294,5.8,5.8,36,0.00,OVC,,0.00,WeatherDisplay:10.37,2013-03-16 16:25:00,
2013-03-16 12:30:00,40.5,15.0,29.80,NW,311,6.0,6.0,35,0.00,OVC,,0.00,WeatherDisplay:10.37,2013-03-16 16:30:00,
2013-03-16 12:35:00,38.7,13.4,29.79,WNW,292,0.0,0.0,35,0.00,OVC,,0.00,WeatherDisplay:10.37,2013-03-16 16:35:00,
2013-03-16 12:40:00,38.4,13.1,29.79,WNW,291,1.1,0.0,35,0.00,OVC,,0.00,WeatherDisplay:10.37,2013-03-16 16:40:00,
2013-03-16 12:45:00,38.6,14.5,29.79,WNW,291,0.0,0.0,37,0.00,OVC,,0.00,WeatherDisplay:10.37,2013-03-16 16:45:00,
2013-03-16 12:50:00,39.0,14.9,29.79,SW,221,4.0,4.0,37,0.00,OVC,,0.00,WeatherDisplay:10.37,2013-03-16 16:50:00,
2013-03-16 12:55:00,37.8,14.4,29.79,SSW,198,1.1,1.1,38,0.00,OVC,,0.00,WeatherDisplay:10.37,2013-03-16 16:55:00,
2013-03-16 13:00:00,38.6,15.1,29.79,SSW,192,1.1,0.0,38,0.00,OVC,,0.00,WeatherDisplay:10.37,2013-03-16 17:00:00,
2013-03-16 13:05:00,37.7,15.5,29.79,SSE,161,6.9,6.9,40,0.00,OVC,,0.00,WeatherDisplay:10.37,2013-03-16 17:05:00,
2013-03-16 13:10:00,37.0,15.5,29.79,SE,132,10.4,10.4,41,0.00,OVC,,0.00,WeatherDisplay:10.37,2013-03-16 17:10:00,
2013-03-16 13:15:00,37.2,15.1,29.79,SW,223,4.6,4.6,40,0.00,OVC,,0.00,WeatherDisplay:10.37,2013-03-16 17:15:00,
2013-03-16 13:20:00,37.5,15.9,29.79,SW,230,6.0,6.0,41,0.00,OVC,,0.00,WeatherDisplay:10.37,2013-03-16 17:20:00,
2013-03-16 13:25:00,37.5,16.5,29.79,SW,227,7.0,7.0,42,0.00,OVC,,0.00,WeatherDisplay:10.37,2013-03-16 17:25:00,
2013-03-16 13:30:00,37.4,16.4,29.79,SW,217,10.4,10.4,42,0.00,OVC,,0.00,WeatherDisplay:10.37,2013-03-16 17:30:00,
2013-03-16 13:35:00,37.3,16.8,29.79,SW,218,8.0,8.0,43,0.00,OVC,,0.00,WeatherDisplay:10.37,2013-03-16 17:35:00,
2013-03-16 13:40:00,37.3,16.8,29.79,SW,227,11.5,11.5,43,0.00,OVC,,0.00,WeatherDisplay:10.37,2013-03-16 17:40:00,
2013-03-16 13:45:00,37.3,17.9,29.79,WSW,248,10.4,10.4,45,0.00,OVC,,0.00,WeatherDisplay:10.37,2013-03-16 17:45:00,
2013-03-16 13:50:00,37.2,17.8,29.79,SSW,203,11.5,11.5,45,0.00,OVC,,0.00,WeatherDisplay:10.37,2013-03-16 17:50:00,
2013-03-16 13:55:00,37.1,18.2,29.78,SW,227,12.0,12.0,46,0.00,OVC,,0.00,WeatherDisplay:10.37,2013-03-16 17:55:00,
2013-03-16 14:00:00,36.9,18.0,29.78,SSW,211,12.7,12.7,46,0.00,OVC,,0.00,WeatherDisplay:10.37,2013-03-16 18:00:00,
2013-03-16 14:05:00,36.8,18.9,29.77,SW,227,11.5,11.5,48,0.00,OVC,,0.00,WeatherDisplay:10.37,2013-03-16 18:05:00,
2013-03-16 14:10:00,36.6,17.2,29.77,SW,225,12.7,12.7,45,0.00,OVC,,0.00,WeatherDisplay:10.37,2013-03-16 18:10:00,
2013-03-16 14:15:00,36.6,18.2,29.77,SW,228,11.5,11.5,47,0.00,OVC,,0.00,WeatherDisplay:10.37,2013-03-16 18:15:00,
2013-03-16 14:20:00,36.5,18.6,29.77,SW,230,11.0,11.0,48,0.00,OVC,,0.00,WeatherDisplay:10.37,2013-03-16 18:20:00,
2013-03-16 14:25:00,36.7,18.8,29.77,SW,236,11.5,11.5,48,0.00,OVC,,0.00,WeatherDisplay:10.37,2013-03-16 18:25:00,
2013-03-16 14:30:00,36.6,19.7,29.77,SW,227,11.5,11.5,50,0.00,OVC,,0.00,WeatherDisplay:10.37,2013-03-16 18:30:00,
2013-03-16 14:35:00,36.9,19.5,29.78,SW,235,10.4,10.4,49,0.00,OVC,,0.00,WeatherDisplay:10.37,2013-03-16 18:35:00,
2013-03-16 14:40:00,36.7,19.8,29.77,SW,225,13.0,13.0,50,0.00,OVC,,0.00,WeatherDisplay:10.37,2013-03-16 18:40:00,
2013-03-16 14:45:00,36.5,20.1,29.78,WSW,244,11.5,11.5,51,0.00,OVC,,0.00,WeatherDisplay:10.37,2013-03-16 18:45:00,
2013-03-16 14:50:00,36.2,19.8,29.78,SW,236,15.0,15.0,51,0.00,OVC,,0.00,WeatherDisplay:10.37,2013-03-16 18:50:00,
2013-03-16 14:55:00,35.9,20.0,29.78,SW,219,16.1,16.1,52,0.00,OVC,,0.00,WeatherDisplay:10.37,2013-03-16 18:55:00,
2013-03-16 15:00:00,36.0,20.5,29.79,WSW,251,16.1,16.1,53,0.00,OVC,,0.00,WeatherDisplay:10.37,2013-03-16 19:00:00,
2013-03-16 15:05:00,36.1,21.0,29.79,SW,216,13.8,13.8,54,0.00,OVC,,0.00,WeatherDisplay:10.37,2013-03-16 19:05:00,
2013-03-16 15:10:00,35.8,21.2,29.78,SW,235,17.3,17.3,55,0.00,OVC,,0.00,WeatherDisplay:10.37,2013-03-16 19:10:00,
2013-03-16 15:15:00,35.8,21.6,29.78,SW,236,13.8,13.8,56,0.00,OVC,,0.00,WeatherDisplay:10.37,2013-03-16 19:15:00,
2013-03-16 15:20:00,35.8,22.0,29.78,SW,234,16.1,16.1,57,0.00,OVC,,0.00,WeatherDisplay:10.37,2013-03-16 19:20:00,
2013-03-16 15:25:00,35.7,21.9,29.78,SW,233,18.0,18.0,57,0.00,OVC,,0.00,WeatherDisplay:10.37,2013-03-16 19:25:00,
2013-03-16 15:30:00,35.7,23.2,29.78,SW,232,16.1,16.1,60,0.00,OVC,,0.00,WeatherDisplay:10.37,2013-03-16 19:30:00,
2013-03-16 15:35:00,35.4,26.6,29.78,WSW,240,24.2,24.2,70,0.00,OVC,,0.00,WeatherDisplay:10.37,2013-03-16 19:35:00,
2013-03-16 15:40:00,34.0,26.9,29.78,WSW,240,20.7,20.7,75,0.00,OVC,,0.00,WeatherDisplay:10.37,2013-03-16 19:40:00,
2013-03-16 15:45:00,33.6,27.5,29.78,WSW,255,17.3,17.3,78,0.00,OVC,,0.00,WeatherDisplay:10.37,2013-03-16 19:45:00,
2013-03-16 15:50:00,33.4,27.3,29.78,SW,229,17.3,17.3,78,0.00,OVC,,0.00,WeatherDisplay:10.37,2013-03-16 19:50:00,
2013-03-16 15:55:00,33.6,27.8,29.77,SW,218,15.0,15.0,79,0.00,OVC,,0.00,WeatherDisplay:10.37,2013-03-16 19:55:00,
2013-03-16 16:00:00,33.5,27.7,29.77,West,263,18.4,18.4,79,0.00,OVC,,0.00,WeatherDisplay:10.37,2013-03-16 20:00:00,
2013-03-16 16:05:00,33.8,27.7,29.77,WSW,248,16.1,16.1,78,0.00,-SN,,0.00,WeatherDisplay:10.37,2013-03-16 20:05:00,
2013-03-16 16:10:00,33.7,27.3,29.77,WNW,290,13.8,13.8,77,0.00,-SN,,0.00,WeatherDisplay:10.37,2013-03-16 20:10:00,
2013-03-16 16:15:00,33.8,28.6,29.78,West,261,13.8,13.8,81,0.00,-SN,,0.00,WeatherDisplay:10.37,2013-03-16 20:15:00,
2013-03-16 16:20:00,33.7,28.8,29.77,West,270,14.0,14.0,82,0.00,-SN,,0.00,WeatherDisplay:10.37,2013-03-16 20:20:00,
2013-03-16 16:25:00,33.8,28.6,29.77,WSW,254,9.2,9.2,81,0.00,-SN,,0.00,WeatherDisplay:10.37,2013-03-16 20:25:00,
2013-03-16 16:30:00,33.8,28.3,29.77,West,270,13.0,13.0,80,0.00,-SN,,0.00,WeatherDisplay:10.37,2013-03-16 20:30:00,
2013-03-16 16:35:00,33.5,28.6,29.77,SW,232,11.5,11.5,82,0.00,-SN,,0.00,WeatherDisplay:10.37,2013-03-16 20:35:00,
2013-03-16 16:40:00,33.3,28.4,29.77,SW,230,16.1,16.1,82,0.00,-SN,,0.00,WeatherDisplay:10.37,2013-03-16 20:40:00,
2013-03-16 16:45:00,33.3,29.0,29.77,West,265,9.2,9.2,84,0.00,-SN,,0.00,WeatherDisplay:10.37,2013-03-16 20:45:00,
2013-03-16 16:50:00,33.3,28.7,29.77,WSW,247,12.0,12.0,83,0.00,-SN,,0.00,WeatherDisplay:10.37,2013-03-16 20:50:00,
2013-03-16 16:55:00,33.2,28.6,29.77,West,280,12.7,12.7,83,0.00,-SN,,0.00,WeatherDisplay:10.37,2013-03-16 20:55:00,
2013-03-16 17:00:00,33.5,28.6,29.76,WSW,244,11.5,11.5,82,0.00,-SN,,0.00,WeatherDisplay:10.37,2013-03-16 21:00:00,
2013-03-16 17:05:00,33.4,28.5,29.76,WSW,243,11.5,11.5,82,0.00,-SN,,0.00,WeatherDisplay:10.37,2013-03-16 21:05:00,
2013-03-16 17:10:00,33.5,28.6,29.76,WSW,238,13.0,13.0,82,0.00,-SN,,0.00,WeatherDisplay:10.37,2013-03-16 21:10:00,
2013-03-16 17:15:00,33.2,28.6,29.76,WSW,238,9.2,9.2,83,0.00,-SN,,0.00,WeatherDisplay:10.37,2013-03-16 21:15:00,
2013-03-16 17:20:00,33.3,28.7,29.76,West,261,10.4,10.4,83,0.00,-SN,,0.00,WeatherDisplay:10.37,2013-03-16 21:20:00,
2013-03-16 17:25:00,33.4,28.5,29.76,WSW,242,9.0,9.0,82,0.00,-SN,,0.00,WeatherDisplay:10.37,2013-03-16 21:25:00,
2013-03-16 17:30:00,33.5,28.9,29.76,SW,228,11.5,11.5,83,0.00,-SN,,0.00,WeatherDisplay:10.37,2013-03-16 21:30:00,
2013-03-16 17:35:00,33.8,28.9,29.76,WSW,256,11.5,11.5,82,0.00,-SN,,0.00,WeatherDisplay:10.37,2013-03-16 21:35:00,
2013-03-16 17:40:00,33.8,28.9,29.77,West,268,11.5,11.5,82,0.00,-SN,,0.00,WeatherDisplay:10.37,2013-03-16 21:40:00,
2013-03-16 17:45:00,33.6,28.7,29.76,West,261,12.7,12.7,82,0.00,-SN,,0.00,WeatherDisplay:10.37,2013-03-16 21:45:00,
2013-03-16 17:50:00,33.7,29.1,29.77,WSW,257,10.4,10.4,83,0.00,-SN,,0.00,WeatherDisplay:10.37,2013-03-16 21:50:00,
2013-03-16 17:55:00,33.7,29.1,29.77,West,272,8.1,8.1,83,0.00,-SN,,0.00,WeatherDisplay:10.37,2013-03-16 21:55:00,
2013-03-16 18:00:00,33.7,29.1,29.77,WNW,289,8.1,8.1,83,0.00,-SN,,0.00,WeatherDisplay:10.37,2013-03-16 22:00:00,
2013-03-16 18:05:00,33.7,29.1,29.78,WNW,285,11.5,11.5,83,0.00,-SN,,0.00,WeatherDisplay:10.37,2013-03-16 22:05:00,
2013-03-16 18:10:00,33.7,29.1,29.78,West,263,10.4,10.4,83,0.00,-SN,,0.00,WeatherDisplay:10.37,2013-03-16 22:10:00,
2013-03-16 18:15:00,33.4,28.5,29.77,WNW,289,12.7,12.7,82,0.00,-SN,,0.00,WeatherDisplay:10.37,2013-03-16 22:15:00,
2013-03-16 18:20:00,33.2,28.3,29.77,West,275,11.5,11.5,82,0.00,-SN,,0.00,WeatherDisplay:10.37,2013-03-16 22:20:00,
2013-03-16 18:25:00,33.2,28.6,29.77,WNW,294,11.5,11.5,83,0.00,-SN,,0.00,WeatherDisplay:10.37,2013-03-16 22:25:00,
2013-03-16 18:30:00,33.2,28.6,29.77,WNW,302,11.5,11.5,83,0.00,-SN,,0.00,WeatherDisplay:10.37,2013-03-16 22:30:00,
2013-03-16 18:35:00,33.1,28.5,29.77,West,281,11.5,11.5,83,0.00,-SN,,0.00,WeatherDisplay:10.37,2013-03-16 22:35:00,
2013-03-16 18:40:00,33.2,28.9,29.78,West,280,11.5,11.5,84,0.00,-SN,,0.00,WeatherDisplay:10.37,2013-03-16 22:40:00,
2013-03-16 18:45:00,33.2,28.6,29.77,West,267,9.2,9.2,83,0.00,-SN,,0.00,WeatherDisplay:10.37,2013-03-16 22:45:00,
2013-03-16 18:50:00,33.3,29.0,29.77,West,264,11.5,11.5,84,0.00,-SN,,0.00,WeatherDisplay:10.37,2013-03-16 22:50:00,
2013-03-16 18:55:00,33.4,29.1,29.78,West,267,11.5,11.5,84,0.00,-SN,,0.00,WeatherDisplay:10.37,2013-03-16 22:55:00,
2013-03-16 19:00:00,33.4,29.1,29.78,WNW,285,11.5,11.5,84,0.00,-SN,,0.00,WeatherDisplay:10.37,2013-03-16 23:00:00,
2013-03-16 19:05:00,33.3,29.0,29.78,West,278,9.2,9.2,84,0.00,OVC,,0.00,WeatherDisplay:10.37,2013-03-16 23:05:00,
2013-03-16 19:10:00,33.2,29.2,29.79,NW,311,8.1,8.1,85,0.00,OVC,,0.00,WeatherDisplay:10.37,2013-03-16 23:10:00,
2013-03-16 19:15:00,33.1,28.8,29.79,West,278,11.5,11.5,84,0.00,OVC,,0.00,WeatherDisplay:10.37,2013-03-16 23:15:00,
2013-03-16 19:20:00,33.0,29.0,29.79,NW,304,11.0,11.0,85,0.00,OVC,,0.00,WeatherDisplay:10.37,2013-03-16 23:20:00,
2013-03-16 19:25:00,33.0,29.0,29.78,NW,319,6.9,6.9,85,0.00,OVC,,0.00,WeatherDisplay:10.37,2013-03-16 23:25:00,
2013-03-16 19:30:00,33.0,29.0,29.79,NW,311,6.0,6.0,85,0.00,OVC,,0.00,WeatherDisplay:10.37,2013-03-16 23:30:00,
2013-03-16 19:35:00,32.9,28.9,29.78,WNW,300,6.9,6.9,85,0.00,OVC,,0.00,WeatherDisplay:10.37,2013-03-16 23:35:00,
2013-03-16 19:40:00,32.9,28.9,29.79,NW,314,5.0,5.0,85,0.00,OVC,,0.00,WeatherDisplay:10.37,2013-03-16 23:40:00,
2013-03-16 19:45:00,33.0,29.0,29.79,WNW,303,6.9,6.9,85,0.00,OVC,,0.00,WeatherDisplay:10.37,2013-03-16 23:45:00,
2013-03-16 19:50:00,33.0,29.0,29.79,NW,317,5.8,5.8,85,0.00,OVC,,0.00,WeatherDisplay:10.37,2013-03-16 23:50:00,
2013-03-16 19:55:00,33.0,29.0,29.79,NW,320,5.8,5.8,85,0.00,OVC,,0.00,WeatherDisplay:10.37,2013-03-16 23:55:00,
2013-03-16 20:00:00,33.0,29.0,29.79,NW,318,0.0,0.0,85,0.00,OVC,,0.00,WeatherDisplay:10.37,2013-03-17 00:00:00,
2013-03-16 20:05:00,33.0,29.0,29.79,NW,318,0.0,0.0,85,0.00,OVC,,0.00,WeatherDisplay:10.37,2013-03-17 00:05:00,
2013-03-16 20:10:00,33.0,29.0,29.79,North,0,0.0,0.0,85,0.00,OVC,,0.00,WeatherDisplay:10.37,2013-03-17 00:10:00,
2013-03-16 20:15:00,33.0,29.0,29.79,North,0,0.0,0.0,85,0.00,OVC,,0.00,WeatherDisplay:10.37,2013-03-17 00:15:00,
2013-03-16 20:20:00,33.0,29.0,29.80,North,0,0.0,0.0,85,0.00,OVC,,0.00,WeatherDisplay:10.37,2013-03-17 00:20:00,
2013-03-16 20:25:00,33.1,29.1,29.80,NNW,328,3.5,3.5,85,0.00,OVC,,0.00,WeatherDisplay:10.37,2013-03-17 00:25:00,
2013-03-16 20:30:00,33.2,29.2,29.80,NW,325,4.6,4.6,85,0.00,OVC,,0.00,WeatherDisplay:10.37,2013-03-17 00:30:00,
2013-03-16 20:35:00,33.3,29.3,29.81,NW,315,3.5,3.5,85,0.00,OVC,,0.00,WeatherDisplay:10.37,2013-03-17 00:35:00,
2013-03-16 20:40:00,33.3,29.3,29.81,NW,321,4.6,4.6,85,0.00,OVC,,0.00,WeatherDisplay:10.37,2013-03-17 00:40:00,
2013-03-16 20:45:00,33.2,29.2,29.81,WNW,300,3.5,3.5,85,0.00,OVC,,0.00,WeatherDisplay:10.37,2013-03-17 00:45:00,
2013-03-16 20:50:00,33.4,29.7,29.82,NW,304,0.0,0.0,86,0.00,OVC,,0.00,WeatherDisplay:10.37,2013-03-17 00:50:00,
2013-03-16 20:55:00,33.2,29.5,29.82,NW,313,0.0,0.0,86,0.00,OVC,,0.00,WeatherDisplay:10.37,2013-03-17 00:55:00,
2013-03-16 21:00:00,33.1,29.4,29.82,NW,310,4.0,4.0,86,0.00,OVC,,0.00,WeatherDisplay:10.37,2013-03-17 01:00:00,
2013-03-16 21:05:00,33.1,31.0,29.82,NW,307,3.5,3.5,92,0.00,-SN,,0.00,WeatherDisplay:10.37,2013-03-17 01:05:00,
2013-03-16 21:10:00,33.1,29.4,29.82,NW,319,4.6,4.6,86,0.00,-SN,,0.00,WeatherDisplay:10.37,2013-03-17 01:10:00,
2013-03-16 21:15:00,33.2,29.8,29.82,NW,320,4.0,4.0,87,0.00,-SN,,0.00,WeatherDisplay:10.37,2013-03-17 01:15:00,
2013-03-16 21:20:00,33.2,29.8,29.82,NW,315,3.5,3.5,87,0.00,-SN,,0.00,WeatherDisplay:10.37,2013-03-17 01:20:00,
2013-03-16 21:25:00,33.2,29.8,29.82,NW,309,4.0,4.0,87,0.00,-SN,,0.00,WeatherDisplay:10.37,2013-03-17 01:25:00,
2013-03-16 21:30:00,33.2,29.8,29.82,NW,309,3.5,3.5,87,0.00,-SN,,0.00,WeatherDisplay:10.37,2013-03-17 01:30:00,
2013-03-16 21:35:00,33.5,30.3,29.82,NW,309,2.3,2.3,88,0.00,-SN,,0.00,WeatherDisplay:10.37,2013-03-17 01:35:00,
2013-03-16 21:40:00,33.5,30.0,29.83,WNW,283,3.5,3.5,87,0.00,-SN,,0.00,WeatherDisplay:10.37,2013-03-17 01:40:00,
2013-03-16 21:45:00,33.5,30.0,29.83,WNW,283,3.5,3.5,87,0.00,-SN,,0.00,WeatherDisplay:10.37,2013-03-17 01:45:00,
2013-03-16 21:50:00,33.5,30.0,29.84,WNW,290,0.0,0.0,87,0.00,-SN,,0.00,WeatherDisplay:10.37,2013-03-17 01:50:00,
2013-03-16 21:55:00,33.4,29.9,29.84,WNW,302,3.5,3.5,87,0.00,-SN,,0.00,WeatherDisplay:10.37,2013-03-17 01:55:00,
2013-03-16 22:00:00,33.3,29.8,29.84,NW,311,3.5,3.5,87,0.00,-SN,,0.00,WeatherDisplay:10.37,2013-03-17 02:00:00,
2013-03-16 22:05:00,33.4,30.2,29.84,NW,313,3.5,3.5,88,0.00,OVC,,0.00,WeatherDisplay:10.37,2013-03-17 02:05:00,
2013-03-16 22:10:00,33.3,29.8,29.84,WNW,298,4.6,4.6,87,0.00,OVC,,0.00,WeatherDisplay:10.37,2013-03-17 02:10:00,
2013-03-16 22:15:00,33.3,30.1,29.84,NW,311,2.3,2.3,88,0.00,OVC,,0.00,WeatherDisplay:10.37,2013-03-17 02:15:00,
2013-03-16 22:20:00,33.5,30.0,29.84,NW,309,3.5,3.5,87,0.00,OVC,,0.00,WeatherDisplay:10.37,2013-03-17 02:20:00,
2013-03-16 22:25:00,33.5,30.3,29.84,WNW,301,0.0,0.0,88,0.00,OVC,,0.00,WeatherDisplay:10.37,2013-03-17 02:25:00,
2013-03-16 22:30:00,33.6,30.4,29.84,WNW,286,3.0,3.0,88,0.00,OVC,,0.00,WeatherDisplay:10.37,2013-03-17 02:30:00,
2013-03-16 22:35:00,33.6,30.1,29.84,WNW,291,3.5,3.5,87,0.00,OVC,,0.00,WeatherDisplay:10.37,2013-03-17 02:35:00,
2013-03-16 22:40:00,33.5,30.0,29.84,WNW,294,0.0,0.0,87,0.00,OVC,,0.00,WeatherDisplay:10.37,2013-03-17 02:40:00,
2013-03-16 22:45:00,33.4,29.9,29.84,WNW,284,0.0,0.0,87,0.00,OVC,,0.00,WeatherDisplay:10.37,2013-03-17 02:45:00,
2013-03-16 22:50:00,33.5,30.0,29.84,WNW,294,2.3,2.3,87,0.00,OVC,,0.00,WeatherDisplay:10.37,2013-03-17 02:50:00,
2013-03-16 22:55:00,33.5,30.0,29.85,NW,310,5.0,5.0,87,0.00,OVC,,0.00,WeatherDisplay:10.37,2013-03-17 02:55:00,
2013-03-16 23:00:00,33.4,29.9,29.85,NW,304,3.5,3.5,87,0.00,OVC,,0.00,WeatherDisplay:10.37,2013-03-17 03:00:00,
2013-03-16 23:05:00,33.4,29.9,29.85,NW,323,6.0,6.0,87,0.00,OVC,,0.00,WeatherDisplay:10.37,2013-03-17 03:05:00,
2013-03-16 23:10:00,33.4,29.9,29.85,NW,313,5.0,5.0,87,0.00,OVC,,0.00,WeatherDisplay:10.37,2013-03-17 03:10:00,
2013-03-16 23:15:00,33.4,29.9,29.85,NW,323,4.6,4.6,87,0.00,OVC,,0.00,WeatherDisplay:10.37,2013-03-17 03:15:00,
2013-03-16 23:20:00,33.3,29.8,29.85,WNW,297,3.5,3.5,87,0.00,OVC,,0.00,WeatherDisplay:10.37,2013-03-17 03:20:00,
2013-03-16 23:25:00,33.4,29.9,29.85,WNW,302,0.0,0.0,87,0.00,OVC,,0.00,WeatherDisplay:10.37,2013-03-17 03:25:00,
2013-03-16 23:30:00,33.4,29.9,29.85,NW,315,4.0,4.0,87,0.00,OVC,,0.00,WeatherDisplay:10.37,2013-03-17 03:30:00,
2013-03-16 23:35:00,33.3,29.8,29.86,NW,317,2.3,2.3,87,0.00,OVC,,0.00,WeatherDisplay:10.37,2013-03-17 03:35:00,
2013-03-16 23:40:00,33.3,30.1,29.85,NW,307,3.5,3.5,88,0.00,OVC,,0.00,WeatherDisplay:10.37,2013-03-17 03:40:00,
2013-03-16 23:45:00,33.3,30.1,29.86,NW,308,3.5,3.5,88,0.00,OVC,,0.00,WeatherDisplay:10.37,2013-03-17 03:45:00,
2013-03-16 23:50:00,33.2,30.0,29.86,NW,308,3.5,3.5,88,0.00,OVC,,0.00,WeatherDisplay:10.37,2013-03-17 03:50:00,
2013-03-16 23:55:00,33.2,30.0,29.86,NW,309,0.0,0.0,88,0.00,OVC,,0.00,WeatherDisplay:10.37,2013-03-17 03:55:00,